{"data":{"norad_id":59233,"intl_designator":"2024-049C","name":"STARLINK-31459","alt_names":[],"object_type":"PAYLOAD","status":"ACTIVE","operator":null,"country":"US","launch_date":"2024-03-16","launch_site_code":"AFETR","launch_vehicle":null,"mission":null,"orbit_class":"UNKNOWN","rcs_meters":null,"size_class":null,"mass_kg":null,"dimensions":null,"purposes":["comms"],"wikipedia_slug":null,"has_3d_model":false,"image_url":null,"decayed_at":null,"tle_current":{"epoch":"2026-05-25T04:13:19.056000Z","epoch_age_seconds":53734,"freshness":"FRESH","line1":"1 59233U 24049C   26145.17591500  .00000746  00000+0  36638-4 0  9993","line2":"2 59233  43.0028  71.5853 0000795 274.9572  85.1189 15.27577956124099","mean_motion":15.27577956,"eccentricity":7.95e-5,"inclination_deg":43.0028,"raan_deg":71.5853,"arg_perigee_deg":274.9572,"mean_anomaly_deg":85.1189,"bstar":3.6638e-5,"rev_number":12409,"period_min":94.266874848775,"perigee_km":482.50975173659,"apogee_km":483.60068129902,"semimajor_km":6861.1922165178,"source":"CELESTRAK","updated_at":"2026-05-25T13:38:18.869347Z"}}}